Location: Arbon
(43.0005°N, 0.7472°E)
Time: 12:03:00
(UTC+00:00)

Resurs 01 Rocket - Pass Details

Date: 22 April 2026
Orbit: 626 x 636 km, 97.7° (Epoch: 16 May)

Event Time Altitude Azimuth Distance (km) Brightness Sun altitude
Rises 19:34:48 0° 194° (SSW) 2,905 4.9 -8.8°
Reaches altitude 10° 19:37:16 10° 207° (SSW) 2,001 4.2 -9.2°
Maximum altitude 19:40:58 27° 265° (W) 1,216 3.8 -9.8°
Drops below altitude 10° 19:44:42 10° 323° (NW) 2,011 5.3 -10.4°
Sets 19:47:11 0° 336° (NNW) 2,922 5.9 -10.8°
